Location: Clanezzo
(45.7500°N, 9.6000°E)
Time: 20:37:41
(UTC+00:00)

PicSat - Visible Passes

Search period start: 28 June 2022 00:00
Search period end: 08 July 2022 00:00
Orbit: 453 x 459 km, 97.4° (Epoch: 28 June)

Date Brightness Start Highest point End Pass type
(mag) Time Alt. Az. Time Alt. Az. Time Alt. Az.
28 Jun ? 21:17:41 30° SE 21:18:57 46° ENE 21:22:17 10° N visible
28 Jun ? 22:51:27 11° WSW 22:52:06 11° W 22:53:20 10° WNW visible
29 Jun ? 20:44:10 13° ESE 20:45:57 19° ENE 20:48:28 10° NNE visible
29 Jun ? 22:17:56 25° WSW 22:18:40 28° W 22:21:40 10° NW visible
30 Jun ? 21:44:23 45° S 21:45:20 77° W 21:48:47 10° NNW visible
01 Jul ? 21:10:49 26° ESE 21:12:09 37° ENE 21:15:22 10° N visible
01 Jul ? 22:44:34 13° WSW 22:45:12 14° W 22:47:04 10° WNW visible
02 Jul ? 20:37:13 11° E 20:39:06 16° ENE 20:41:17 10° NNE visible
02 Jul ? 22:10:59 30° SW 22:11:42 34° W 22:14:53 10° NNW visible
03 Jul ? 21:37:21 45° SSE 21:38:20 84° ENE 21:41:48 10° N visible
04 Jul ? 21:03:43 22° ESE 21:05:06 31° ENE 21:08:11 10° N visible
04 Jul ? 22:37:28 16° WSW 22:38:03 17° W 22:40:22 10° NW visible
05 Jul ? 20:30:15 10° E 20:32:00 14° ENE 20:33:47 10° NNE visible
05 Jul ? 22:03:48 37° SW 22:04:31 42° W 22:07:49 10° NNW visible
06 Jul ? 21:30:07 42° SE 21:31:06 67° ENE 21:34:32 10° N visible
07 Jul ? 20:56:24 19° ESE 20:57:50 25° ENE 21:00:44 10° NNE visible
07 Jul ? 22:30:09 20° WSW 22:30:41 21° W 22:33:20 10° NW visible
